Location: Pedholt
(56.0260°N, 10.2097°E)
Time: 07:30:54
(UTC+00:00)

S-56A Canister/Altair - Pass Details

Date: 03 August 2021
Orbit: 632 x 2500 km, 38.9° (Epoch: 25 September)

Event Time Altitude Azimuth Distance (km) Brightness Sun altitude
Rises 20:14:59 0° 275° (W) 6,183 13.0 -6.5°
Reaches altitude 10° 20:22:12 10° 254° (WSW) 5,105 12.1 -7.2°
Maximum altitude 20:27:56 13° 230° (SW) 4,652 11.5 -7.8°
Drops below altitude 10° 20:33:18 10° 206° (SSW) 4,705 11.3 -8.3°
Sets 20:39:25 0° 183° (S) 5,339 11.4 -8.8°
